Wind_Speed
24 23 21 19 15 13 10 11 10 8 8 6 5 5 5 7 8 7 5 4 4 3 3 3 4 5 8 11 13 14 16 18 20 20 19 19 18 18 19 19 20 20 20 21
24 23 21 19 18 16 15 14 13 11 10 9 10 9 8 9 10 9 9 7 6 4 2 1 3 6 8 10 12 13 16 18 18 17 17 16 16 15 16 17 17 18 19 20
23 21 20 19 17 15 14 14 13 11 11 11 11 11 10 10 11 11 10 10 8 7 5 4 4 5 6 8 10 12 13 14 14 15 15 15 15 15 15 17 18 19 20 20
22 20 19 18 17 15 15 14 13 12 12 12 11 11 11 11 11 12 12 12 11 9 8 7 7 7 7 9 10 11 12 13 14 15 15 16 15 15 16 17 18 18 19 19
21 19 18 17 16 15 13 13 12 11 11 11 11 11 10 11 11 11 11 11 11 10 9 9 9 9 10 10 11 12 14 15 16 16 16 16 16 16 17 17 18 18 19 19
19 18 16 15 14 13 12 11 11 10 10 10 11 10 10 10 10 11 11 10 10 10 10 10 11 11 11 12 13 14 15 16 16 16 16 16 16 17 17 17 18 18 19 19
17 16 15 14 13 12 10 9 9 9 9 9 9 9 9 9 9 10 10 10 11 11 11 12 12 13 13 14 14 15 15 16 16 16 16 16 16 17 17 17 18 18 18 18
15 15 14 12 11 11 9 8 7 7 7 7 7 8 8 8 9 9 10 10 11 12 13 13 14 15 16 16 16 17 17 16 16 15 15 16 16 16 16 16 16 16 16 17
16 15 14 11 10 9 8 7 6 5 5 5 5 6 7 8 9 10 11 12 13 14 14 15 16 17 18 18 18 18 18 17 16 16 15 15 14 14 14 14 14 14 14 14
16 15 14 12 10 8 7 6 5 4 4 4 4 4 6 7 9 10 12 13 14 15 16 17 18 19 19 19 19 19 18 18 17 16 15 14 14 13 13 12 12 12 12 12
16 16 14 12 9 8 7 6 5 3 3 3 3 4 5 7 9 11 12 14 15 16 16 17 18 19 19 19 19 19 18 18 17 16 15 14 13 13 12 11 11 11 11 10
18 17 16 13 10 8 6 5 4 4 4 4 3 3 5 6 8 10 12 13 15 16 17 18 18 19 19 19 19 18 18 18 17 16 15 14 14 13 12 12 12 11 11 10
18 18 17 15 12 8 7 6 5 5 5 4 4 4 4 5 7 9 11 13 14 16 16 17 18 18 18 18 18 18 18 18 18 17 17 16 15 15 14 14 13 13 12 11
19 18 18 17 14 10 8 7 6 5 5 4 4 4 3 4 6 8 10 12 13 15 16 16 17 18 18 18 18 18 18 18 18 18 18 18 17 17 16 15 15 15 14 13
19 19 19 18 16 12 9 8 7 6 5 5 4 4 4 4 5 6 8 10 11 13 14 15 16 17 17 17 18 18 18 18 18 18 18 18 18 18 18 17 17 17 16 16
17 18 19 19 18 14 11 9 8 7 5 5 5 4 4 3 4 5 6 8 9 11 13 14 14 15 16 16 17 17 17 18 18 18 18 19 19 19 18 18 18 18 18 18
15 16 17 18 18 17 14 12 10 8 6 4 4 4 4 3 3 3 4 6 8 9 11 12 12 13 14 15 15 16 16 17 17 17 18 18 19 19 18 19 19 19 19 19
14 14 15 17 18 17 16 14 12 10 7 5 4 4 4 4 4 3 3 4 6 7 8 9 10 11 12 13 14 15 15 15 16 16 17 18 19 19 18 19 19 19 20 20
14 13 14 15 16 16 16 16 14 12 9 6 5 5 4 5 5 4 4 4 4 5 6 7 8 9 10 11 12 13 13 14 14 15 16 16 17 18 18 18 18 18 19 19
15 14 13 13 14 15 15 15 15 14 11 9 6 5 6 6 5 5 5 5 4 4 4 5 6 7 8 9 10 11 11 12 13 13 14 15 15 16 17 17 17 17 17 17
18 16 14 13 13 13 14 14 15 14 13 11 9 6 6 6 6 6 6 6 5 5 4 4 5 6 6 7 8 9 9 10 11 12 12 13 14 14 15 15 16 16 16 16
21 19 17 15 14 14 13 13 14 14 13 12 10 9 7 6 6 7 7 7 7 6 6 5 5 5 5 6 6 7 7 8 9 10 11 11 12 13 14 14 14 15 15 15
23 22 20 18 17 15 14 14 13 13 13 12 12 10 9 7 7 7 8 9 9 8 7 7 6 5 5 5 5 6 6 7 7 8 9 10 11 11 12 13 13 14 14 14
26 25 23 22 20 18 17 15 15 14 13 13 12 11 10 9 8 7 7 9 9 9 9 9 8 7 6 6 5 5 5 5 6 7 7 8 9 10 11 12 12 13 13 13
29 28 27 25 24 22 20 18 17 16 14 14 13 12 11 10 9 8 8 9 9 10 10 10 10 9 9 7 7 6 6 6 6 6 6 7 8 9 9 10 11 12 12 12
33 32 30 29 28 26 24 22 21 19 17 16 15 14 13 12 11 10 10 9 9 10 11 11 12 11 11 10 9 8 8 7 7 6 6 7 7 8 8 9 9 10 11 12
37 35 34 33 32 30 28 27 25 23 21 19 18 16 15 14 13 12 11 10 10 10 11 12 12 12 12 12 12 11 10 10 9 8 8 7 7 7 8 8 8 9 10 10
Wind_Direction
24 28 34 41 51 63 84 98 101 102 104 106 103 94 68 59 63 66 69 69 85 118 155 190 222 243 258 264 267 272 276 279 284 286 290 291 287 285 283 282 281 278 278 279
31 35 41 48 59 72 85 93 95 93 89 89 91 79 66 66 68 65 65 63 68 80 80 336 278 272 272 272 276 281 284 286 290 291 294 292 290 286 283 281 281 281 280 280
34 37 46 58 63 73 84 92 93 88 82 81 81 77 75 72 67 63 66 60 54 48 38 12 346 323 302 291 291 295 297 297 298 297 298 297 295 292 288 282 280 280 279 279
34 39 48 55 61 70 77 81 82 82 81 78 73 74 70 66 65 63 63 59 53 47 39 23 7 349 333 322 315 312 308 305 303 302 303 300 296 294 292 288 282 281 279 278
34 40 46 52 56 64 71 74 72 77 79 76 73 72 70 67 63 59 57 52 46 38 28 17 4 351 339 330 322 315 310 307 305 304 304 301 294 291 289 288 285 282 280 279
34 38 43 46 48 53 59 66 65 70 71 70 72 71 69 64 57 52 48 43 36 26 15 6 357 348 340 332 324 318 313 310 307 304 302 298 295 292 289 287 286 284 282 279
27 30 35 38 41 43 48 55 60 62 64 72 76 71 63 57 51 45 40 33 25 16 8 1 355 349 343 338 332 327 322 317 312 308 305 302 300 296 293 291 289 286 283 280
20 21 23 26 32 37 40 47 50 52 60 72 70 62 53 46 39 35 30 25 18 10 5 2 358 353 348 343 339 334 330 326 321 317 314 311 307 303 300 298 294 290 287 284
17 17 15 16 19 25 31 37 39 39 50 62 57 52 42 34 29 26 24 19 14 10 7 4 0 356 351 348 345 343 340 337 333 329 326 322 319 315 312 308 303 300 297 294
13 11 7 7 8 11 15 21 26 29 39 44 45 36 26 25 23 21 19 16 14 11 8 4 1 358 356 354 352 351 350 348 345 342 339 336 332 329 326 321 317 313 310 306
10 7 4 0 359 2 3 5 7 9 11 9 8 11 15 18 18 17 16 14 13 12 9 6 3 2 0 359 358 358 358 358 357 356 354 352 349 346 344 341 337 335 331 326
10 8 5 360 352 347 344 343 343 345 348 348 345 354 8 14 16 15 14 13 14 13 11 9 7 7 6 6 5 5 6 7 8 8 7 7 6 5 4 3 1 0 360 358
10 11 9 4 357 348 338 332 324 322 333 337 334 336 352 9 14 14 13 14 15 14 13 12 12 11 11 12 12 14 17 19 20 20 21 21 21 21 20 20 20 20 19 18
6 7 8 7 4 358 348 340 329 313 312 326 334 333 339 358 8 11 13 15 16 16 15 15 15 15 17 18 20 21 24 26 26 27 29 30 31 31 32 32 32 32 32 33
1 5 7 7 6 3 357 350 343 328 309 305 314 320 322 337 357 7 12 15 17 17 16 17 18 19 20 21 23 25 28 30 31 33 34 35 35 36 38 39 40 39 40 42
352 359 4 6 7 7 4 356 348 341 329 312 300 300 304 308 333 356 6 11 15 16 16 17 19 20 21 23 25 27 30 33 35 36 36 37 38 39 41 42 43 44 45 47
340 350 358 2 5 8 8 7 359 347 335 324 315 299 286 282 295 330 351 2 9 12 14 16 18 21 23 25 26 29 31 34 35 37 38 39 41 42 44 45 46 48 49 50
321 335 346 354 359 4 8 9 8 0 347 325 315 304 286 276 276 284 314 342 358 5 9 13 17 19 22 25 27 29 32 34 37 38 40 41 43 44 45 46 47 48 49 49
300 315 329 341 350 356 1 5 7 6 360 340 311 297 290 284 275 270 281 304 330 350 359 5 10 13 17 22 25 28 31 33 36 38 39 40 42 43 43 44 44 46 47 48
281 293 308 322 335 344 351 358 2 4 3 358 337 304 289 283 273 265 268 278 296 317 336 350 359 4 9 15 20 24 27 30 33 35 37 38 38 38 39 39 40 41 43 44
269 275 285 299 313 326 336 344 353 359 2 1 355 338 311 291 273 263 261 265 275 289 304 323 339 350 357 5 12 17 22 26 29 32 34 35 35 34 34 35 35 36 37 39
262 265 270 278 290 303 316 328 337 346 353 358 356 349 334 311 285 266 260 259 263 272 281 292 308 324 337 348 357 6 13 18 22 25 28 31 31 30 30 30 30 30 31 32
258 259 261 266 274 284 295 306 318 329 339 346 351 350 343 329 310 283 264 259 259 263 268 274 281 294 309 322 335 347 358 7 13 18 22 25 27 27 26 25 25 25 25 27
254 255 256 258 263 270 279 289 299 310 321 329 335 341 343 338 326 308 283 267 261 260 262 264 267 273 284 296 306 318 331 345 358 6 11 15 18 20 20 20 19 19 19 20
253 253 253 254 256 260 266 274 282 292 303 312 319 323 329 332 328 324 306 282 268 261 260 261 262 264 269 276 285 293 302 314 329 343 352 358 3 7 11 13 13 13 13 14
251 251 251 252 254 256 258 263 269 277 286 295 302 308 311 315 318 317 314 302 281 267 261 260 260 261 263 266 271 278 284 293 303 315 326 336 345 352 357 1 4 5 7 8
250 250 250 250 251 253 254 257 261 265 272 279 287 294 299 302 306 309 309 307 298 280 267 263 261 260 261 263 265 268 273 280 287 296 304 313 323 333 340 346 351 355 357 0
Height
5775 5769 5764 5760 5758 5756 5757 5758 5760 5762 5764 5766 5767 5768 5768 5768 5767 5767 5768 5768 5769 5770 5771 5772 5774 5775 5777 5778 5779 5780 5780 5781 5780 5780 5779 5778 5777 5776 5775 5774 5773 5773 5773 5772
5780 5775 5770 5766 5764 5763 5763 5763 5765 5766 5768 5769 5770 5770 5770 5770 5770 5770 5770 5770 5771 5771 5772 5773 5774 5775 5776 5777 5777 5777 5777 5777 5777 5776 5775 5774 5772 5771 5770 5769 5769 5768 5767 5766
5785 5780 5776 5773 5771 5770 5769 5769 5770 5771 5772 5772 5773 5773 5773 5773 5772 5772 5772 5772 5773 5773 5773 5774 5774 5775 5775 5775 5775 5775 5774 5774 5773 5772 5771 5770 5768 5767 5765 5764 5764 5763 5762 5761
5790 5787 5783 5782 5777 5776 5775 5775 5775 5776 5776 5776 5777 5777 5776 5776 5775 5775 5775 5775 5775 5775 5775 5775 5775 5774 5774 5774 5773 5772 5771 5770 5769 5768 5766 5764 5763 5762 5761 5759 5758 5757 5756 5755
5796 5792 5789 5786 5783 5782 5781 5781 5780 5780 5780 5780 5780 5780 5780 5780 5779 5778 5778 5778 5778 5777 5777 5776 5775 5775 5774 5773 5771 5770 5768 5767 5765 5763 5761 5760 5758 5757 5756 5754 5753 5752 5750 5749
5801 5797 5794 5793 5790 5787 5787 5786 5785 5784 5784 5784 5784 5784 5784 5783 5782 5781 5781 5781 5780 5779 5778 5777 5776 5774 5773 5771 5769 5767 5765 5763 5761 5759 5757 5755 5754 5752 5750 5749 5747 5746 5744 5743
5805 5802 5799 5797 5794 5793 5792 5792 5789 5788 5788 5787 5787 5787 5787 5786 5785 5784 5783 5782 5781 5780 5779 5777 5775 5773 5771 5769 5766 5764 5761 5759 5756 5754 5752 5750 5748 5746 5745 5743 5741 5740 5738 5737
5808 5805 5805 5800 5797 5796 5795 5793 5792 5791 5791 5790 5790 5790 5789 5788 5788 5787 5786 5784 5782 5781 5778 5776 5774 5771 5769 5766 5763 5761 5758 5755 5752 5750 5747 5745 5743 5741 5739 5737 5736 5734 5732 5731
5811 5810 5805 5802 5800 5798 5797 5795 5795 5794 5793 5793 5792 5792 5792 5791 5790 5789 5787 5785 5783 5781 5778 5775 5773 5770 5767 5764 5761 5757 5754 5751 5748 5745 5743 5741 5739 5737 5734 5732 5730 5729 5727 5725
5813 5810 5807 5804 5801 5800 5798 5797 5796 5796 5795 5795 5794 5794 5793 5792 5791 5790 5788 5786 5784 5781 5778 5776 5772 5769 5766 5762 5759 5755 5752 5749 5746 5743 5740 5738 5735 5733 5731 5729 5726 5724 5723 5721
5814 5811 5808 5805 5803 5801 5800 5799 5798 5797 5797 5796 5796 5795 5795 5794 5793 5791 5789 5787 5785 5782 5779 5776 5773 5769 5765 5762 5758 5755 5751 5748 5745 5741 5739 5736 5734 5731 5729 5726 5724 5722 5720 5718
5817 5813 5810 5807 5804 5802 5801 5800 5799 5798 5798 5797 5797 5796 5796 5795 5794 5792 5791 5789 5786 5783 5780 5777 5773 5770 5766 5763 5759 5756 5752 5748 5745 5742 5739 5736 5733 5731 5728 5726 5723 5721 5718 5716
5818 5814 5811 5807 5804 5802 5800 5799 5799 5798 5798 5797 5797 5797 5796 5796 5795 5793 5792 5790 5787 5785 5781 5778 5775 5771 5768 5764 5761 5757 5753 5750 5747 5744 5740 5737 5734 5732 5729 5727 5724 5721 5719 5716
5819 5816 5812 5808 5805 5802 5800 5799 5798 5798 5797 5797 5797 5797 5796 5796 5795 5794 5793 5791 5788 5786 5783 5780 5777 5774 5770 5767 5763 5760 5756 5753 5750 5746 5743 5740 5737 5734 5731 5729 5726 5723 5721 5718
5820 5817 5813 5810 5806 5803 5801 5799 5798 5797 5796 5796 5796 5796 5796 5796 5795 5794 5793 5792 5790 5787 5785 5782 5779 5776 5773 5769 5766 5763 5759 5756 5753 5750 5747 5744 5741 5738 5735 5732 5729 5726 5724 5721
5820 5817 5814 5811 5807 5804 5801 5799 5797 5796 5795 5795 5795 5795 5795 5795 5795 5794 5793 5792 5791 5789 5786 5783 5781 5778 5775 5772 5769 5766 5763 5760 5757 5754 5751 5747 5744 5742 5739 5736 5733 5730 5728 5725
5820 5817 5814 5811 5808 5805 5802 5799 5797 5795 5794 5793 5793 5793 5793 5793 5794 5793 5793 5792 5791 5789 5787 5785 5783 5780 5778 5775 5772 5769 5766 5763 5760 5757 5754 5751 5748 5746 5743 5740 5738 5735 5732 5730
5818 5817 5814 5812 5809 5806 5803 5800 5797 5795 5793 5792 5792 5792 5792 5792 5792 5792 5792 5792 5791 5790 5788 5786 5784 5782 5780 5777 5775 5772 5769 5767 5764 5761 5758 5756 5753 5750 5747 5745 5742 5740 5737 5735
5816 5815 5813 5811 5809 5806 5803 5800 5798 5795 5793 5791 5791 5790 5790 5790 5790 5791 5791 5791 5790 5789 5788 5786 5785 5783 5781 5779 5777 5775 5772 5770 5767 5764 5762 5759 5757 5754 5752 5749 5747 5744 5742 5739
5812 5812 5811 5810 5808 5806 5803 5801 5798 5795 5793 5791 5789 5789 5788 5788 5788 5788 5789 5789 5789 5788 5787 5786 5785 5783 5782 5780 5778 5776 5774 5772 5770 5767 5765 5763 5760 5758 5755 5753 5751 5748 5746 5743
5808 5808 5808 5807 5806 5804 5802 5800 5798 5795 5793 5790 5789 5787 5787 5786 5786 5786 5786 5787 5787 5786 5786 5785 5784 5783 5782 5781 5779 5777 5776 5774 5772 5769 5767 5765 5763 5761 5759 5756 5754 5752 5749 5747
5802 5802 5803 5803 5803 5802 5800 5799 5797 5794 5792 5790 5788 5786 5785 5784 5784 5784 5784 5784 5784 5784 5784 5784 5783 5783 5782 5781 5779 5778 5777 5775 5773 5771 5769 5767 5765 5763 5761 5759 5757 5755 5752 5750
5795 5796 5797 5798 5798 5798 5797 5796 5794 5793 5791 5789 5787 5785 5784 5783 5782 5781 5781 5781 5781 5782 5782 5782 5782 5781 5781 5780 5779 5778 5777 5775 5774 5772 5770 5769 5767 5765 5763 5761 5759 5757 5755 5753
5787 5788 5790 5791 5792 5793 5793 5792 5791 5790 5788 5787 5785 5784 5782 5781 5780 5779 5778 5778 5778 5778 5779 5779 5779 5779 5779 5778 5778 5777 5776 5775 5774 5773 5771 5769 5768 5766 5764 5762 5760 5758 5756 5754
5778 5780 5782 5783 5785 5786 5787 5787 5787 5786 5785 5784 5783 5781 5780 5779 5778 5776 5775 5775 5775 5775 5775 5776 5776 5776 5776 5776 5776 5776 5775 5774 5774 5772 5771 5770 5768 5766 5765 5763 5761 5759 5757 5756
5769 5771 5773 5775 5776 5778 5779 5780 5781 5781 5780 5780 5779 5778 5777 5776 5774 5773 5772 5771 5771 5771 5771 5772 5772 5773 5773 5773 5773 5773 5773 5773 5772 5771 5770 5769 5768 5766 5765 5763 5761 5760 5758 5756
5758 5761 5763 5765 5767 5769 5770 5772 5773 5774 5774 5774 5774 5773 5772 5772 5771 5770 5769 5768 5767 5767 5767 5767 5768 5768 5769 5769 5770 5770 5770 5770 5770 5769 5769 5768 5767 5765 5764 5762 5761 5760 5758 5756